Weather History for EGPL - January, 2013

Change the Weather History Date:

Thursday, January 10, 2013

  Actual Average Record
Temperature  
Mean Temperature 40 °F -  
Max Temperature 44 °F 43 °F 51 °F (2005)
Min Temperature 35 °F 38 °F 33 °F (2001)
Degree Days  
Heating Degree Days 26    
Moisture  
Dew Point 38 °F    
Average Humidity 91    
Maximum Humidity 100    
Minimum Humidity 81    
Precipitation  
Precipitation 0.00 in - - ()
Sea Level Pressure  
Sea Level Pressure 29.94 in    
Wind  
Wind Speed 6 mph ()    
Max Wind Speed 18 mph    
Max Gust Speed -    
Visibility 6.2 miles    
Events      
Averages and records for this station are not official NWS values.
T = Trace of Precipitation, MM = Missing Value Source: Averaged Metar Reports

Daily Weather History Graph

Daily Weather History Graph

Search for Another Location

Airport or City:

Trip Planner

Search our weather history database for the weather conditions in past years. The results will help you decide how hot, cold, wet, or windy it might be!

Date:

Astronomy

Jan. 10, 2013 Rise Set
Actual Time 9:04 AM GMT 4:09 PM GMT
Civil Twilight 8:16 AM GMT 4:57 PM GMT
Nautical Twilight 7:26 AM GMT 5:48 PM GMT
Astronomical Twilight 6:39 AM GMT 6:35 PM GMT
Moon 7:31 AM GMT (1/10) 3:02 PM GMT (1/10)
Length of Visible Light 8h 41m
Length of Day
7h 04m
Waning Crescent, 3% of the Moon is Illuminated
Jan 10
Waning Crescent
Jan 11
New
Jan 18
First Quarter
Jan 27
Full
Feb 3
Last Quarter

Hourly Weather History & Observations

Time (GMT) Temp. Windchill Dew Point Humidity Pressure Visibility Wind Dir Wind Speed Gust Speed Precip Events Conditions
12:20 AM 39.2 °F 35.9 °F 39.2 °F 100% 30.04 in 6.2 mi South 4.6 mph - N/A   Unknown
12:50 AM 39.2 °F 35.9 °F 39.2 °F 100% 30.04 in 6.2 mi South 4.6 mph - N/A   Unknown
1:20 AM 39.2 °F 35.9 °F 37.4 °F 93% 30.01 in 6.2 mi South 4.6 mph - N/A   Unknown
1:50 AM 39.2 °F 35.0 °F 39.2 °F 100% 30.01 in 6.2 mi South 5.8 mph - N/A   Unknown
2:20 AM 37.4 °F - 37.4 °F 100% 30.01 in 6.2 mi Calm Calm - N/A   Unknown
2:50 AM 37.4 °F - 37.4 °F 100% 30.01 in 6.2 mi SE 2.3 mph - N/A   Unknown
3:20 AM 35.6 °F - 33.8 °F 93% 30.01 in 5.6 mi SE 2.3 mph - N/A   Scattered Clouds
3:50 AM 35.6 °F - 33.8 °F 93% 30.01 in 6.2 mi SSE 2.3 mph - N/A   Overcast
4:20 AM 37.4 °F - 37.4 °F 100% 30.01 in 6.2 mi SSE 2.3 mph - N/A   Unknown
4:50 AM 39.2 °F - 37.4 °F 93% 30.01 in 6.2 mi SSE 2.3 mph - N/A   Mostly Cloudy
5:20 AM 39.2 °F 37.0 °F 39.2 °F 100% 30.01 in 6.2 mi South 3.5 mph - N/A   Overcast
5:50 AM 37.4 °F - 35.6 °F 93% 29.98 in 6.2 mi Calm Calm - N/A   Overcast
6:20 AM 37.4 °F - 35.6 °F 93% 29.98 in 6.2 mi East 2.3 mph - N/A   Overcast
6:50 AM 37.4 °F 34.9 °F 35.6 °F 93% 29.98 in 6.2 mi East 3.5 mph - N/A   Mostly Cloudy
7:20 AM 37.4 °F 33.8 °F 35.6 °F 93% 29.98 in 6.2 mi East 4.6 mph - N/A   Mostly Cloudy
7:50 AM 37.4 °F 34.9 °F 37.4 °F 100% 29.98 in 6.2 mi East 3.5 mph - N/A   Mostly Cloudy
8:20 AM 37.4 °F 33.8 °F 37.4 °F 100% 29.98 in 6.2 mi SE 4.6 mph - N/A   Mostly Cloudy
8:50 AM 39.2 °F 35.9 °F 39.2 °F 100% 29.98 in 6.2 mi ESE 4.6 mph - N/A   Mostly Cloudy
9:50 AM 41.0 °F 37.1 °F 41.0 °F 100% 29.95 in 6.2 mi ESE 5.8 mph - N/A   Mostly Cloudy
10:20 AM 42.8 °F 40.1 °F 41.0 °F 93% 29.95 in 6.2 mi ESE 4.6 mph - N/A   Mostly Cloudy
10:50 AM 42.8 °F 38.0 °F 41.0 °F 93% 29.95 in 6.2 mi ESE 8.1 mph - N/A   Mostly Cloudy
11:20 AM 44.6 °F 40.2 °F 41.0 °F 87% 29.95 in 6.2 mi ESE 8.1 mph - N/A   Mostly Cloudy
11:50 AM 42.8 °F 37.0 °F 37.4 °F 81% 29.95 in 6.2 mi SE 10.4 mph - N/A   Mostly Cloudy
12:20 PM 44.6 °F 39.7 °F 39.2 °F 81% 29.92 in 6.2 mi SE 9.2 mph - N/A   Mostly Cloudy
12:50 PM 44.6 °F 39.2 °F 39.2 °F 81% 29.92 in 6.2 mi SE 10.4 mph - N/A   Partly Cloudy
1:20 PM 44.6 °F 39.2 °F 39.2 °F 81% 29.92 in 6.2 mi SE 10.4 mph - N/A   Scattered Clouds
1:50 PM 44.6 °F 38.4 °F 39.2 °F 81% 29.89 in 6.2 mi SE 12.7 mph - N/A   Scattered Clouds
2:20 PM 44.6 °F 38.1 °F 39.2 °F 81% 29.89 in 6.2 mi SE 13.8 mph - N/A   Scattered Clouds
2:50 PM 42.8 °F 37.5 °F 39.2 °F 87% 29.89 in 6.2 mi SE 9.2 mph - N/A   Scattered Clouds
3:20 PM 41.0 °F 34.3 °F 37.4 °F 87% 29.89 in 6.2 mi SSE 11.5 mph - N/A   Scattered Clouds
3:50 PM 41.0 °F 34.7 °F 39.2 °F 93% 29.89 in 6.2 mi SE 10.4 mph - N/A   Scattered Clouds
4:20 PM 41.0 °F 33.1 °F 39.2 °F 93% 29.89 in 6.2 mi SSE 15.0 mph - N/A   Scattered Clouds
4:50 PM 41.0 °F 33.9 °F 35.6 °F 81% 29.89 in 6.2 mi SSE 12.7 mph - N/A   Scattered Clouds
5:20 PM 39.2 °F 32.5 °F 35.6 °F 87% 29.89 in 6.2 mi SE 10.4 mph - N/A   Partly Cloudy
5:50 PM 39.2 °F 32.0 °F 35.6 °F 87% 29.89 in 6.2 mi SE 11.5 mph - N/A   Unknown
6:20 PM 41.0 °F 34.7 °F 35.6 °F 81% 29.89 in 6.2 mi SE 10.4 mph - N/A   Partly Cloudy
6:50 PM 41.0 °F 34.3 °F 37.4 °F 87% 29.89 in 6.2 mi SE 11.5 mph - N/A   Partly Cloudy
7:20 PM 42.8 °F 35.4 °F 37.4 °F 81% 29.89 in 6.2 mi SE 15.0 mph - N/A   Mostly Cloudy
7:50 PM 42.8 °F 35.1 °F 39.2 °F 87% 29.89 in 6.2 mi SE 16.1 mph - N/A   Mostly Cloudy
8:20 PM 42.8 °F 34.8 °F 39.2 °F 87% 29.89 in 6.2 mi SSE 17.3 mph - N/A   Mostly Cloudy
8:50 PM 42.8 °F 35.1 °F 39.2 °F 87% 29.89 in 6.2 mi SE 16.1 mph - N/A   Mostly Cloudy
9:20 PM 42.8 °F 35.4 °F 39.2 °F 87% 29.89 in 6.2 mi SE 15.0 mph - N/A   Overcast
9:50 PM 42.8 °F 34.8 °F 39.2 °F 87% 29.89 in 6.2 mi SSE 17.3 mph - N/A   Mostly Cloudy
10:20 PM 42.8 °F 35.1 °F 39.2 °F 87% 29.89 in 6.2 mi SE 16.1 mph - N/A   Overcast
10:50 PM 42.8 °F 34.5 °F 39.2 °F 87% 29.89 in 6.2 mi SE 18.4 mph - N/A   Mostly Cloudy
11:20 PM 42.8 °F 34.5 °F 41.0 °F 93% 29.89 in 6.2 mi SE 18.4 mph - N/A   Mostly Cloudy
11:50 PM 42.8 °F 34.5 °F 41.0 °F 93% 29.86 in - SE 18.4 mph - N/A   Mostly Cloudy